Weather History for CYYG - September, 2012

Change the Weather History Date:

Thursday, September 27, 2012

  Actual Average Record
Temperature  
Mean Temperature 55 °F -  
Max Temperature 62 °F 55 °F 75 °F (2003)
Min Temperature 48 °F 40 °F 33 °F (2010)
Degree Days  
Heating Degree Days 10    
Growing Degree Days 5 (Base 50)    
Moisture  
Dew Point 51 °F    
Average Humidity 80    
Maximum Humidity 100    
Minimum Humidity 48    
Precipitation  
Precipitation 0.12 in 0.14 in - ()
Sea Level Pressure  
Sea Level Pressure 29.99 in    
Wind  
Wind Speed 13 mph ()    
Max Wind Speed 23 mph    
Max Gust Speed 31 mph    
Visibility 14.3 miles    
Events Rain    
Averages and records for this station are not official NWS values.
T = Trace of Precipitation, MM = Missing Value Source: Averaged Metar Reports

Daily Weather History Graph

Daily Weather History Graph

Search for Another Location

Airport or City:

Trip Planner

Search our weather history database for the weather conditions in past years. The results will help you decide how hot, cold, wet, or windy it might be!

Date:

Astronomy

Sep. 27, 2012 Rise Set
Actual Time 7:06 AM ADT 6:59 PM ADT
Civil Twilight 6:36 AM ADT 7:29 PM ADT
Nautical Twilight 6:01 AM ADT 8:04 PM ADT
Astronomical Twilight 5:25 AM ADT 8:39 PM ADT
Moon 5:33 PM ADT (9/27) 4:24 AM ADT (9/27)
Length of Visible Light 12h 52m
Length of Day
11h 53m
Waxing Gibbous, 93% of the Moon is Illuminated
Sep 27
Waxing Gibbous
Sep 30
Full
Oct 8
Last Quarter
Oct 15
New
Oct 22
First Quarter

Hourly Weather History & Observations

Time (ADT) Temp. Dew Point Humidity Pressure Visibility Wind Dir Wind Speed Gust Speed Precip Events Conditions
12:00 AM 62.6 °F 57.2 °F 82% 30.01 in 15.0 mi South 16.1 mph 26.5 mph N/A Rain Light Rain Showers
12:47 AM 62.6 °F 57.2 °F 82% 29.99 in 15.0 mi South 21.9 mph 29.9 mph N/A   Overcast
1:00 AM 62.6 °F 57.2 °F 82% 29.98 in 15.0 mi South 23.0 mph 31.1 mph N/A   Overcast
2:00 AM 60.8 °F 57.2 °F 88% 29.97 in 15.0 mi South 17.3 mph 26.5 mph N/A   Overcast
3:00 AM 61 °F 58 °F 88% 29.95 in 15 mi South 16.1 mph - -   Partly Cloudy
3:00 AM 60.8 °F 59.0 °F 94% 29.94 in 15.0 mi SSW 12.7 mph 23.0 mph N/A   Overcast
4:00 AM 60.8 °F 59.0 °F 94% 29.92 in 15.0 mi South 15.0 mph - N/A   Overcast
4:48 AM 60.8 °F 59.0 °F 94% 29.91 in 10.0 mi SSW 18.4 mph - N/A Rain Light Rain Showers
5:00 AM 60.8 °F 59.0 °F 94% 29.91 in 10.0 mi SSW 15.0 mph - N/A Rain Light Rain Showers
5:43 AM 60.8 °F 59.0 °F 94% 29.90 in 10.0 mi SSW 13.8 mph 23.0 mph N/A Rain Rain Showers
6:00 AM 60.8 °F 59.0 °F 94% 29.90 in 10.0 mi SSW 13.8 mph 19.6 mph N/A Rain Light Rain Showers
7:00 AM 60.8 °F 59.0 °F 94% 29.90 in 10.0 mi SW 10.4 mph - N/A   Overcast
7:36 AM 60.8 °F 59.0 °F 94% 29.90 in 15.0 mi SW 8.1 mph - N/A   Mostly Cloudy
8:00 AM 60.8 °F 60.8 °F 100% 29.91 in 15.0 mi WSW 9.2 mph - N/A   Overcast
9:00 AM 61 °F 60 °F 93% 29.92 in 15 mi WSW 9.2 mph - -   Partly Cloudy
9:00 AM 60.8 °F 59.0 °F 94% 29.92 in 15.0 mi West 10.4 mph - N/A   Mostly Cloudy
9:04 AM 60.8 °F 59.0 °F 94% 29.93 in 15.0 mi West 11.5 mph 18.4 mph N/A   Mostly Cloudy
9:36 AM 57.2 °F 53.6 °F 88% 29.94 in 15.0 mi NNW 17.3 mph 25.3 mph N/A   Overcast
9:46 AM 55.4 °F 51.8 °F 88% 29.95 in 15.0 mi NW 13.8 mph 20.7 mph N/A Rain Light Rain Showers
10:00 AM 55.4 °F 51.8 °F 88% 29.96 in 15.0 mi NW 11.5 mph 20.7 mph N/A   Overcast
11:00 AM 55.4 °F 46.4 °F 72% 29.98 in 15.0 mi NW 11.5 mph 21.9 mph N/A   Mostly Cloudy
12:00 PM 55.4 °F 46.4 °F 72% 29.99 in 15.0 mi NW 11.5 mph 21.9 mph N/A   Mostly Cloudy
1:00 PM 57.2 °F 44.6 °F 63% 30.01 in 15.0 mi NW 11.5 mph 21.9 mph N/A   Scattered Clouds
2:00 PM 57.2 °F 42.8 °F 59% 30.01 in 15.0 mi NNW 12.7 mph 24.2 mph N/A   Scattered Clouds
3:00 PM 57 °F 43 °F 48% 30.02 in 15 mi NW 13.8 mph - -   Partly Cloudy
3:00 PM 57.2 °F 42.8 °F 59% 30.02 in 15.0 mi NW 13.8 mph 20.7 mph N/A   Partly Cloudy
4:00 PM 57.2 °F 41.0 °F 55% 30.03 in 15.0 mi NW 15.0 mph 20.7 mph N/A   Partly Cloudy
5:00 PM 55.4 °F 39.2 °F 54% 30.05 in 15.0 mi NW 11.5 mph 20.7 mph N/A   Partly Cloudy
6:00 PM 55.4 °F 39.2 °F 54% 30.06 in 15.0 mi WNW 10.4 mph 17.3 mph N/A   Partly Cloudy
7:00 PM 51.8 °F 39.2 °F 62% 30.08 in 15.0 mi WNW 6.9 mph - N/A   Partly Cloudy
8:00 PM 48.2 °F 41.0 °F 76% 30.09 in 15.0 mi NW 3.5 mph - N/A   Partly Cloudy
9:00 PM 49 °F 42 °F 67% 30.11 in 15 mi NW 5.8 mph - -   Scattered Clouds
9:00 PM 48.2 °F 41.0 °F 76% 30.11 in 15.0 mi NW 6.9 mph - N/A   Partly Cloudy
10:00 PM 50.0 °F 41.0 °F 71% 30.13 in 15.0 mi WNW 6.9 mph - N/A   Partly Cloudy
11:00 PM 48.2 °F 41.0 °F 76% 30.14 in 15.0 mi WNW 4.6 mph - N/A   Partly Cloudy